HULIANWANG DIGUI 13F

Last updated on Wed Dec 10 2025 00:02:06 GMT+0000 (Coordinated Universal Time)

1 66417U 25258F 25342.85419749 .00000812 00000+0 45399-3 0 9992 2 66417 50.0014 278.3846 0004971 352.5523 7.5313 14.19898124 4101
UTC large
Height (km)
Speed (km/s)
/
Latitude / Longitude
Inclination (degrees)
Orbital Period (minutes)
Azimuth
Elevation
Range (km)
Doppler Factor

Next 0 passes for location: London (51.5072 / 0.1276)

Sorry there are no passes over London.